• Join FlightAware (Why Join?)
  • Login
  • US Flag 
08:54AM EST


 

Airport Tracker/Info


-or-


 

Live Flight TrackerFlight Track Log ✈ AFL150 ✈ 21-Apr-2014 ✈ UUEE / SVO - MUHA / HAV

Flight Track Log - Related Links

Times and Time Zones

All times are in EDT time to prevent confusion due to time zone crossing. See the AFL150 flight status page for this flight to view local times or setup timezone preferences in your user account.

Time Position Orientation Groundspeed Altitude Reporting Facility
EDT Latitude Longitude Course Direction KTS MPH feet Rate Location/Type
06:25AM 56.1966 37.0310 313° West  Level FlightAware Approximate
06:26AM 56.2810 36.8655 313° West  Level FlightAware Approximate
06:27AM 56.3652 36.6992 312° West  Level FlightAware Approximate
06:28AM 56.4491 36.5322 312° West  Level FlightAware Approximate
06:29AM 56.5329 36.3644 312° West  Level FlightAware Approximate
06:30AM 56.6164 36.1959 312° West  Level FlightAware Approximate
06:31AM 56.6996 36.0266 312° West  Level FlightAware Approximate
06:32AM 56.7827 35.8566 312° West  Level FlightAware Approximate
06:33AM 56.8655 35.6858 312° West  Level FlightAware Approximate
06:34AM 56.9481 35.5143 311° West  Level FlightAware Approximate
06:35AM 57.0305 35.3421 311° West  Level FlightAware Approximate
06:36AM 57.1126 35.1690 311° West  Level FlightAware Approximate
06:37AM 57.1944 34.9952 311° West  Level FlightAware Approximate
06:38AM 57.2761 34.8206 311° West  Level FlightAware Approximate
06:39AM 57.3575 34.6453 311° West  Level FlightAware Approximate
06:40AM 57.3835 34.5798 309° West  Level FlightAware Approximate
06:41AM 57.4617 34.3990 309° West  Level FlightAware Approximate
06:42AM 57.5397 34.2175 309° West  Level FlightAware Approximate
06:43AM 57.6174 34.0351 309° West  Level FlightAware Approximate
06:44AM 57.6948 33.8520 308° West  Level FlightAware Approximate
06:45AM 57.7719 33.6681 308° West  Level FlightAware Approximate
06:46AM 57.8488 33.4834 308° West  Level FlightAware Approximate
06:47AM 57.9258 33.2985 308° West  Level FlightAware Approximate
06:48AM 58.0028 33.1132 308° West  Level FlightAware Approximate
06:49AM 58.0796 32.9271 308° West  Level FlightAware Approximate
06:50AM 58.1560 32.7403 308° West  Level FlightAware Approximate
06:51AM 58.2322 32.5526 308° West  Level FlightAware Approximate
06:52AM 58.3081 32.3641 308° West  Level FlightAware Approximate
06:53AM 58.3838 32.1748 307° West  Level FlightAware Approximate
06:53AM 56.5043 31.7192 278° West 506 582 34,000  Level FlightAware ADS-B
06:54AM 56.5380 31.2915 278° West 505 581 34,000  Level FlightAware ADS-B
06:55AM 56.5578 31.0318 278° West 504 580 34,000  Level FlightAware ADS-B
06:56AM 56.5786 30.7488 277° West 503 579 34,000  Level FlightAware ADS-B
06:56AM 56.5896 30.5965 277° West 504 580 34,000  Level FlightAware ADS-B (EVDA / DGP)
06:57AM 56.6075 30.3424 277° West 504 580 34,000  Level FlightAware ADS-B (EVDA / DGP)
06:58AM 56.6138 30.2504 277° West 504 580 34,000  Level FlightAware ADS-B
06:59AM 56.6309 29.9973 277° West 503 579 34,000  Level FlightAware ADS-B
07:00AM 56.6386 29.8796 277° West 503 579 34,000  Level FlightAware ADS-B (EVDA / DGP)
07:01AM 56.6615 29.5212 276° West 500 575 34,000  Level FlightAware ADS-B (EVDA / DGP)
07:02AM 56.6769 29.2713 276° West 498 573 34,000  Level FlightAware ADS-B (EVDA / DGP)
07:03AM 56.6916 29.0237 276° West 495 570 34,000  Level FlightAware ADS-B (EVDA / DGP)
07:03AM 56.6991 28.8938 276° West 493 567 34,000  Level FlightAware ADS-B
07:04AM 56.7128 28.6502 276° West 490 564 34,000  Level FlightAware ADS-B
07:05AM 56.7259 28.4103 276° West 488 562 34,000  Level FlightAware ADS-B
07:06AM 56.7355 28.2286 275° West 488 562 34,000  Level FlightAware ADS-B (EVDA / DGP)
07:07AM 56.7482 27.9797 275° West 488 562 34,000  Level FlightAware ADS-B (EVDA / DGP)
07:08AM 56.7607 27.7322 275° West 486 559 34,000  Level FlightAware ADS-B (EVDA / DGP)
07:09AM 56.7731 27.4897 275° West 483 556 34,000  Level FlightAware ADS-B (EVDA / DGP)
07:10AM 56.7848 27.2469 275° West 482 555 34,000  Level FlightAware ADS-B (EVDA / DGP)
07:11AM 56.7961 27.0049 275° West 482 555 34,000  Level FlightAware ADS-B (EVDA / DGP)
07:12AM 56.8016 26.8827 275° West 483 556 34,000  Level FlightAware ADS-B
07:13AM 56.8149 26.5786 275° West 481 554 34,000  Level FlightAware ADS-B
07:14AM 56.8251 26.3323 274° West 478 550 34,000  Level FlightAware ADS-B
07:15AM 56.8346 26.0909 274° West 476 548 34,000  Level FlightAware ADS-B
07:16AM 56.8435 25.8499 274° West 475 547 34,000  Level FlightAware ADS-B
07:17AM 56.8517 25.6165 274° West 476 548 34,000  Level FlightAware ADS-B
07:18AM 56.8619 25.3727 275° West 476 548 34,000  Level FlightAware ADS-B
07:19AM 56.8736 25.1348 275° West 474 545 34,000  Level FlightAware ADS-B
07:20AM 56.8840 24.8979 275° West 471 542 34,000  Level FlightAware ADS-B
07:21AM 56.8942 24.6598 274° West 468 539 34,000  Level FlightAware ADS-B
07:22AM 56.9037 24.4241 274° West 467 537 34,000  Level FlightAware ADS-B
07:23AM 56.9128 24.1899 274° West 465 535 34,000  Level FlightAware ADS-B
07:24AM 56.9142 23.9566 265° West 459 528 34,000  Level FlightAware ADS-B
07:25AM 56.8909 23.7329 257° West 456 525 34,000  Level FlightAware ADS-B
07:26AM 56.8608 23.5000 257° West 456 525 34,000  Level FlightAware ADS-B
07:27AM 56.8293 23.2603 256° West 457 526 34,000  Level FlightAware ADS-B
07:28AM 56.7995 23.0378 256° West 456 525 34,000  Level FlightAware ADS-B
07:29AM 56.7706 22.8262 256° West 457 526 34,000  Level FlightAware ADS-B
07:30AM 56.7389 22.5972 256° West 457 526 34,000  Level FlightAware ADS-B
07:31AM 56.7175 22.4440 256° West 457 526 34,000  Level FlightAware ADS-B
07:31AM 56.6951 22.2889 255° West 458 527 34,000  Level FlightAware ADS-B
07:32AM 56.6700 22.1186 255° West 459 528 34,000  Level FlightAware ADS-B (EVDA / DGP)
07:33AM 56.6370 21.8959 255° West 460 529 34,000  Level FlightAware ADS-B (EVDA / DGP)
07:34AM 56.6012 21.6578 255° West 462 532 34,000  Level FlightAware ADS-B (EVDA / DGP)
07:35AM 56.5625 21.4046 254° West 462 532 34,000  Level FlightAware ADS-B
07:36AM 56.5340 21.1818 267° West 462 532 34,000  Level FlightAware ADS-B
07:37AM 56.5422 20.9601 275° West 463 533 34,000  Level FlightAware ADS-B
07:38AM 56.5511 20.7277 274° West 462 532 34,000  Level FlightAware ADS-B
07:57AM 56.6182 16.3419 270° West 484 557 34,000  Level FlightAware ADS-B (ESMS / MMX)
07:58AM 56.6175 16.1509 270° West 484 557 34,000  Level FlightAware ADS-B (ESMS / MMX)
07:58AM 56.6170 16.0383 270° West 484 557 34,000  Level FlightAware ADS-B (ESMS / MMX)
07:59AM 56.6159 15.8310 269° West 485 558 34,000  Level FlightAware ADS-B (ESMS / MMX)
07:59AM 56.6150 15.7019 269° West 485 558 34,000  Level FlightAware ADS-B (ESMS / MMX)
08:00AM 56.6136 15.5365 269° West 486 559 34,000  Level FlightAware ADS-B (ESMS / MMX)
08:01AM 56.6114 15.3065 269° West 486 559 34,000  Level FlightAware ADS-B (ESMS / MMX)
08:02AM 56.6098 15.1676 269° West 487 560 34,000  Level FlightAware ADS-B (ESMS / MMX)
08:02AM 56.6082 15.0354 269° West 488 562 34,000  Level FlightAware ADS-B (ESMS / MMX)
08:03AM 56.6063 14.8952 269° West 489 563 34,000  Level FlightAware ADS-B (ESMS / MMX)
08:03AM 56.6045 14.7670 268° West 489 563 34,000  Level FlightAware ADS-B (ESMS / MMX)
08:04AM 56.6021 14.6139 268° West 490 564 34,000  Level FlightAware ADS-B (ESMS / MMX)
08:04AM 56.6000 14.4907 268° West 490 564 34,000  Level FlightAware ADS-B (ESMS / MMX)
08:05AM 56.5978 14.3683 268° West 491 565 34,000  Level FlightAware ADS-B (ESMS / MMX)
08:05AM 56.5954 14.2385 268° West 491 565 34,000  Level FlightAware ADS-B (ESMS / MMX)
08:06AM 56.5929 14.1127 268° West 491 565 34,000  Level FlightAware ADS-B (ESMS / MMX)
08:07AM 56.5899 13.9639 268° West 491 565 34,000  Level FlightAware ADS-B (ESMS / MMX)
08:07AM 56.5866 13.8148 268° West 492 566 34,000  Level FlightAware ADS-B (ESMS / MMX)
08:08AM 56.5836 13.6883 268° West 493 567 34,000  Level FlightAware ADS-B (ESMS / MMX)
08:08AM 56.5786 13.4827 267° West 497 572 34,000  Level FlightAware ADS-B (ESMS / MMX)
08:09AM 56.5749 13.3384 267° West 498 573 34,000  Level FlightAware ADS-B (ESMS / MMX)
08:09AM 56.5718 13.2222 268° West 491 565 34,000  Level FlightAware ADS-B (EDLP / PAD)
08:10AM 56.5701 13.1620 268° West 498 573 34,000  Level FlightAware ADS-B (EDLP / PAD)
08:10AM 56.5663 13.0305 267° West 499 574 34,000  Level FlightAware ADS-B (ESMS / MMX)
08:11AM 56.5627 12.9079 267° West 499 574 34,000  Level FlightAware ADS-B (ESMS / MMX)
08:11AM 56.5610 12.8484 268° West 498 573 34,000  Level FlightAware ADS-B (EDLP / PAD)
08:11AM 56.5573 12.7313 267° West 499 574 34,000  Level FlightAware ADS-B (ESMS / MMX)
08:12AM 56.5532 12.6043 267° West 499 574 34,000  Level FlightAware ADS-B (ESMS / MMX)
08:12AM 56.5489 12.4730 266° West 499 574 34,000  Level FlightAware ADS-B (EDLP / PAD)
08:13AM 56.5447 12.3497 268° West 499 574 34,000  Level FlightAware ADS-B (EDLP / PAD)
08:14AM 56.5415 12.2216 268° West 500 575 34,000  Level FlightAware ADS-B (ESMS / MMX)
08:14AM 56.5384 12.0899 267° West 500 575 34,000  Level FlightAware ADS-B (ESMS / MMX)
08:14AM 56.5355 11.9832 268° West 498 573 34,000  Level FlightAware ADS-B (EDLP / PAD)
08:15AM 56.5339 11.9232 268° West 498 573 34,000  Level FlightAware ADS-B (EDLP / PAD)
08:15AM 56.5303 11.8009 268° West 498 573 34,000  Level FlightAware ADS-B (EDLP / PAD)
08:16AM 56.5263 11.6677 267° West 500 575 34,000  Level FlightAware ADS-B (ESMS / MMX)
08:17AM 56.5202 11.4720 267° West 501 577 34,000  Level FlightAware ADS-B (ESMS / MMX)
08:17AM 56.5161 11.3447 267° West 502 578 34,000  Level FlightAware ADS-B (ESMS / MMX)
08:18AM 56.5115 11.2108 267° West 503 579 34,000  Level FlightAware ADS-B (ESMS / MMX)
08:18AM 56.5073 11.0901 266° West 504 580 34,000  Level FlightAware ADS-B (ESMS / MMX)
08:19AM 56.5018 10.9362 266° West 504 580 34,000  Level FlightAware ADS-B (EGLL / LHR)
08:19AM 56.4967 10.7976 266° West 504 580 34,000  Level FlightAware ADS-B (ESMS / MMX)
08:20AM 56.4918 10.6704 266° West 504 580 34,000  Level FlightAware ADS-B (ESMS / MMX)
08:20AM 56.4868 10.5444 266° West 504 580 34,000  Level FlightAware ADS-B (ESMS / MMX)
08:21AM 56.4803 10.3803 266° West 505 581 34,000  Level FlightAware ADS-B (ESMS / MMX)
08:21AM 56.4743 10.2377 266° West 506 582 34,000  Level FlightAware ADS-B (ESMS / MMX)
08:22AM 56.4662 10.0484 266° West 507 583 34,000  Level FlightAware ADS-B (ESMS / MMX)
08:22AM 56.4643 9.9891 266° West 507 583 34,000  Level FlightAware ADS-B (EGLL / LHR)
08:23AM 56.4660 9.8428 272° West 508 585 34,000  Level FlightAware ADS-B (ESMS / MMX)
08:24AM 56.4676 9.6919 270° West 508 585 34,000  Level FlightAware ADS-B (EGLL / LHR)
08:25AM 56.4680 9.4533 270° West 509 586 34,000  Level FlightAware ADS-B (EGLL / LHR)
08:25AM 56.4679 9.3131 270° West 510 587 34,000  Level FlightAware ADS-B (EGLL / LHR)
08:26AM 56.4671 9.0541 270° West 509 586 34,000  Level FlightAware ADS-B (EGLL / LHR)
08:27AM 56.4659 8.8017 269° West 509 586 34,000  Level FlightAware ADS-B (EGLL / LHR)
08:28AM 56.4648 8.6300 269° West 508 585 34,000  Level FlightAware ADS-B (EGLL / LHR)
08:28AM 56.4638 8.5053 269° West 509 586 34,000  Level FlightAware ADS-B (EGLL / LHR)
08:29AM 56.4635 8.4655 269° West 509 586 34,000  Level FlightAware ADS-B (EGLL / LHR)
08:31AM 56.4548 7.7103 269° West 507 583 34,000  Level FlightAware ADS-B (ESMS / MMX)
08:32AM 56.4527 7.5690 268° West 506 582 34,000  Level FlightAware ADS-B (ESMS / MMX)
08:40AM 56.3981 5.4361 282° West 481 554 34,000  Level FlightAware UK
08:41AM 56.6826 5.6690 282° West  Level Estimated
08:44AM 56.3735 4.6718 267° West 490 564 34,000  Level FlightAware UK
08:44AM 56.3674 4.5262 266° West 490 564 34,000  Level FlightAware UK
08:45AM 56.3620 4.4052 265° West 490 564 34,000  Level FlightAware UK
08:45AM 56.3573 4.2831 266° West 490 564 34,000  Level FlightAware UK
08:46AM 56.3524 4.1607 266° West 488 562 34,000  Level FlightAware UK
08:46AM 56.3460 4.0156 265° West 488 562 34,000  Level FlightAware UK
08:47AM 56.3336 3.7491 265° West 488 562 34,000  Level FlightAware UK
08:48AM 56.3244 3.5557 265° West 488 562 34,000  Level FlightAware UK
08:49AM 56.3160 3.3865 265° West 486 559 34,000  Level FlightAware UK
08:50AM 56.3075 3.2183 265° West 486 559 34,000 60 Level FlightAware UK
08:50AM 56.3014 3.0976 265° West 486 559 34,100 960 Climbing FlightAware UK
08:51AM 56.2950 2.9766 265° West 476 548 35,000 1,380 Climbing FlightAware UK
08:51AM 56.2850 2.7915 264° West 468 539 35,900 720 Climbing FlightAware UK
08:52AM 56.2785 2.6750 264° West 472 543 36,000 60 Climbing FlightAware UK
08:52AM 56.2705 2.5341 264° West 474 545 36,000  Level FlightAware UK
08:53AM 56.2613 2.3702 264° West 474 545 36,000  Level FlightAware UK
08:54AM 56.2542 2.2528 264° West 470 541 36,000  Level FlightAware UK
08:54AM 56.2458 2.1135 264° West 470 541 36,000  Level FlightAware UK
08:55AM 56.2387 1.9970 264° West 470 541 36,000  Level FlightAware UK
08:55AM 56.2303 1.8577 264° West 470 541 36,000  Level FlightAware UK
08:56AM 56.2230 1.7417 264° West 470 541 36,000  Level FlightAware UK
08:56AM 56.2196 1.6858 264° West 470 541 36,000  Level FlightAware ADS-B (EGPD / ABZ)
08:57AM 56.2111 1.5572 264° West 468 539 36,000  Level FlightAware UK
08:57AM 56.2068 1.4873 264° West 469 540 36,000  Level FlightAware ADS-B (EGPD / ABZ)
08:58AM 56.1960 1.3266 264° West 468 539 36,000  Level FlightAware UK
08:58AM 56.1918 1.2598 264° West 469 540 36,000  Level FlightAware ADS-B (EGPD / ABZ)
08:58AM 56.1832 1.1335 264° West 469 540 36,000  Level FlightAware ADS-B (EGPD / ABZ)
08:59AM 56.1725 0.9808 264° West 468 539 36,000  Level FlightAware UK
09:00AM 56.1578 0.7730 263° West 470 541 36,000  Level FlightAware UK
09:00AM 56.1538 0.7144 264° West 470 541 36,000  Level FlightAware ADS-B (EGPD / ABZ)
09:01AM 56.1405 0.5296 263° West 472 543 36,000  Level FlightAware ADS-B (EGNT / NCL)
09:02AM 56.1371 0.4833 262° West 471 542 36,000  Level FlightAware ADS-B (EGNT / NCL)
09:02AM 56.1195 0.2506 262° West 470 541 36,000  Level FlightAware ADS-B (EGPD / ABZ)
09:03AM 56.1115 0.1456 262° West 469 540 36,000  Level FlightAware ADS-B (EGNT / NCL)
09:03AM 56.1016 0.0187 262° West 470 541 36,000  Level FlightAware ADS-B
09:04AM 56.0960 -0.0533 262° West 470 541 36,000  Level FlightAware ADS-B (EGNT / NCL)
09:05AM 56.0796 -0.2596 262° West 471 542 36,000  Level FlightAware ADS-B
09:05AM 56.0677 -0.4080 262° West 471 542 36,000  Level FlightAware ADS-B (EGNT / NCL)
09:06AM 56.0565 -0.5448 262° West 471 542 36,000  Level FlightAware ADS-B (EGPH / EDI)
09:06AM 56.0462 -0.6695 262° West 472 543 36,000  Level FlightAware ADS-B (EGPD / ABZ)
09:07AM 56.0367 -0.7822 261° West 473 544 36,000  Level FlightAware ADS-B
09:07AM 56.0354 -0.7978 261° West 474 545 36,000  Level FlightAware ADS-B (EGNT / NCL)
09:07AM 56.0275 -0.8909 261° West 476 548 36,000  Level FlightAware ADS-B (EGPH / EDI)
09:08AM 56.0225 -0.9479 261° West 476 548 36,000  Level FlightAware ADS-B (EGPH / EDI)
09:08AM 56.0120 -1.0703 261° West 476 548 36,000  Level FlightAware UK
09:08AM 56.0089 -1.1059 261° West 477 549 36,000  Level FlightAware ADS-B (EGNT / NCL)
09:08AM 56.0042 -1.1588 262° West 476 548 36,000  Level FlightAware ADS-B (EGPD / ABZ)
09:09AM 55.9978 -1.2317 261° West 478 550 36,000  Level FlightAware ADS-B
09:09AM 55.9926 -1.2905 261° West 478 550 36,000  Level FlightAware ADS-B (EGPH / EDI)
09:09AM 55.9896 -1.3244 261° West 479 551 36,000  Level FlightAware ADS-B (EGNT / NCL)
09:09AM 55.9878 -1.3445 261° West 479 551 36,000  Level FlightAware ADS-B (EGPH / EDI)
09:09AM 55.9835 -1.3926 261° West 479 551 36,000  Level FlightAware ADS-B (EGNT / NCL)
09:10AM 55.9783 -1.4517 261° West 480 552 36,000  Level FlightAware ADS-B
09:10AM 55.9765 -1.4717 261° West 480 552 36,000  Level FlightAware ADS-B (EGAA / BFS)
09:10AM 55.9689 -1.5641 268° West 478 550 36,000  Level FlightAware ADS-B (EGAA / BFS)
09:11AM 55.9706 -1.6787 277° West 476 548 36,000  Level FlightAware ADS-B (EGPH / EDI)
09:11AM 55.9774 -1.8033 273° West 476 548 36,000  Level FlightAware ADS-B (EGPH / EDI)
09:12AM 55.9797 -1.9026 272° West 475 547 36,000  Level FlightAware ADS-B (EGPN / DND)
09:12AM 55.9842 -2.0906 273° West 475 547 36,000  Level FlightAware ADS-B
09:13AM 55.9877 -2.2213 273° West 475 547 36,000  Level FlightAware ADS-B (EGPT / PSL)
09:13AM 55.9907 -2.3377 273° West 475 547 36,000  Level FlightAware ADS-B (EGPT / PSL)
09:14AM 55.9938 -2.4568 273° West 475 547 36,000  Level FlightAware ADS-B (EGPT / PSL)
09:14AM 55.9967 -2.5733 273° West 475 547 36,000  Level FlightAware ADS-B (EGPT / PSL)
09:15AM 55.9999 -2.7087 272° West 473 544 36,000  Level FlightAware ADS-B (EGPT / PSL)
09:16AM 56.0028 -2.8357 272° West 472 543 36,000  Level FlightAware ADS-B (EGPG)
09:16AM 56.0055 -2.9610 272° West 473 544 36,000  Level FlightAware ADS-B (EGPG)
09:17AM 56.0084 -3.1023 272° West 473 544 36,000  Level FlightAware ADS-B (EGPG)
09:17AM 56.0110 -3.2357 272° West 472 543 36,000  Level FlightAware ADS-B (EGPH / EDI)
09:18AM 56.0130 -3.3476 272° West 471 542 36,000  Level FlightAware ADS-B (EGPG)
09:18AM 56.0147 -3.4444 272° West 471 542 36,000  Level FlightAware ADS-B (EGAA / BFS)
09:18AM 56.0158 -3.5130 271° West 470 541 36,000  Level FlightAware ADS-B (EGPD / ABZ)
09:19AM 56.0171 -3.5906 271° West 470 541 36,000  Level FlightAware ADS-B (EGPD / ABZ)
09:19AM 56.0183 -3.6723 271° West 469 540 36,000  Level FlightAware ADS-B (EGPT / PSL)
09:19AM 56.0192 -3.7315 271° West 469 540 36,000  Level FlightAware ADS-B (EGPT / PSL)
09:20AM 56.0210 -3.8523 272° West 467 537 36,000  Level FlightAware ADS-B (EGAA / BFS)
09:20AM 56.0213 -3.8784 271° West 467 537 36,000  Level FlightAware ADS-B (EGPH / EDI)
09:20AM 56.0217 -3.9047 270° West 466 536 36,000  Level FlightAware ADS-B (EGPD / ABZ)
09:21AM 56.0229 -4.0020 271° West 465 535 36,000  Level FlightAware ADS-B (EGPH / EDI)
09:21AM 56.0237 -4.0640 271° West 464 534 36,000  Level FlightAware ADS-B (EGPG)
09:21AM 56.0249 -4.1708 271° West 463 533 36,000  Level FlightAware ADS-B (EGAA / BFS)
09:22AM 56.0263 -4.3025 271° West 462 532 36,000  Level FlightAware ADS-B (EGPG)
09:22AM 56.0272 -4.3860 270° West 462 532 36,000  Level FlightAware ADS-B (EGPF / GLA)
09:23AM 56.0280 -4.4744 271° West 461 531 36,000  Level FlightAware ADS-B (EGPG)
09:23AM 56.0285 -4.5302 271° West 460 529 36,000  Level FlightAware ADS-B
09:23AM 56.0290 -4.5901 271° West 460 529 36,000  Level FlightAware ADS-B (EGPG)
09:24AM 56.0298 -4.7010 271° West 460 529 36,000  Level FlightAware ADS-B (EGPT / PSL)
09:24AM 56.0305 -4.8207 271° West 461 531 36,000  Level FlightAware ADS-B (EGPK / PIK)
09:25AM 56.0312 -4.9517 271° West 463 533 36,000  Level FlightAware ADS-B (EGAA / BFS)
09:25AM 56.0317 -5.0656 271° West 463 533 36,000  Level FlightAware ADS-B (EGPG)
09:26AM 56.0322 -5.1893 270° West 463 533 36,000  Level FlightAware ADS-B
09:26AM 56.0325 -5.3054 270° West 462 532 36,000  Level FlightAware ADS-B (EGPT / PSL)
09:27AM 56.0326 -5.4227 270° West 460 529 36,000  Level FlightAware ADS-B (EGPT / PSL)
09:27AM 56.0327 -5.5348 270° West 458 527 36,000  Level FlightAware ADS-B
09:28AM 56.0328 -5.6556 270° West 457 526 36,000  Level FlightAware ADS-B (EGPT / PSL)
09:28AM 56.0326 -5.7745 270° West 457 526 36,000  Level FlightAware ADS-B (EGPF / GLA)
09:29AM 56.0322 -5.8964 270° West 457 526 36,000  Level FlightAware ADS-B
09:29AM 56.0318 -6.0178 270° West 456 525 36,000  Level FlightAware ADS-B (EGAA / BFS)
09:30AM 56.0312 -6.1481 269° West 456 525 36,000  Level FlightAware ADS-B (EGPF / GLA)
09:31AM 56.0304 -6.2996 269° West 456 525 36,000  Level FlightAware ADS-B (EGPH / EDI)
09:31AM 56.0296 -6.4133 269° West 456 525 36,000  Level FlightAware ADS-B (EGPH / EDI)
09:32AM 56.0289 -6.5239 270° West 457 526 36,000  Level FlightAware ADS-B (EGPF / GLA)
09:32AM 56.0281 -6.6084 270° West 459 528 36,000  Level FlightAware ADS-B (EGPK / PIK)
09:33AM 56.0268 -6.7520 270° West 461 531 36,000  Level FlightAware ADS-B (EGPF / GLA)
09:33AM 56.0252 -6.9077 269° West 464 534 36,000  Level FlightAware ADS-B (EGPH / EDI)
09:34AM 56.0240 -7.0172 269° West 459 528 36,000  Level FlightAware ADS-B (EGPH / EDI)
09:34AM 56.0227 -7.1210 270° West 465 535 36,000  Level FlightAware ADS-B (EGPK / PIK)
09:34AM 56.0222 -7.1585 270° West 467 537 36,000  Level FlightAware ADS-B (EGPK / PIK)
09:35AM 56.0205 -7.2899 270° West 467 537 36,000  Level FlightAware ADS-B (EGPF / GLA)
09:36AM 56.0182 -7.4461 269° West 467 537 36,000  Level FlightAware ADS-B (EGPF / GLA)
09:36AM 56.0162 -7.5762 268° West 464 534 36,000  Level FlightAware ADS-B (EGPN / DND)
09:37AM 56.0131 -7.7527 268° West 463 533 36,000  Level FlightAware ADS-B (EGPF / GLA)
09:38AM 56.0110 -7.8660 268° West 464 534 36,000  Level FlightAware ADS-B (EGAA / BFS)
09:38AM 56.0088 -7.9800 268° West 465 535 36,000  Level FlightAware ADS-B (EGPF / GLA)
09:39AM 56.0059 -8.1274 268° West 466 536 36,000  Level FlightAware ADS-B (EGPH / EDI)
09:39AM 56.0034 -8.2411 268° West 465 535 36,000  Level FlightAware ADS-B (EGPH / EDI)
09:40AM 56.0006 -8.3628 268° West 465 535 36,000  Level FlightAware ADS-B (EGPF / GLA)
09:40AM 55.9980 -8.4789 268° West 465 535 36,000  Level FlightAware ADS-B (EGPH / EDI)
09:41AM 55.9949 -8.6091 268° West 464 534 36,000  Level FlightAware UK
09:41AM 55.9941 -8.6363 267° West 466 536 36,000  Level FlightAware ADS-B (EGPH / EDI)
09:42AM 55.9938 -8.8182 271° West 465 535 36,000  Level FlightAware ADS-B (EGPH / EDI)
09:42AM 55.9953 -8.9752 270° West 466 536 36,000  Level FlightAware ADS-B (EGPF / GLA)
09:43AM 55.9958 -9.0308 270° West 466 536 36,000  Level FlightAware ADS-B (EGPF / GLA)
09:43AM 55.9968 -9.1637 271° West 467 537 36,000  Level FlightAware ADS-B (EGPH / EDI)
09:44AM 55.9976 -9.2835 271° West 469 540 36,000 -180 Level FlightAware ADS-B (EGPF / GLA)
09:44AM 55.9986 -9.4393 271° West 470 541 35,800 -420 Descending FlightAware ADS-B (EGPF / GLA)
09:45AM 55.9993 -9.5923 271° West 467 537 35,500 -480 Descending FlightAware ADS-B (EGPF / GLA)
09:46AM 55.9999 -9.7435 270° West 465 535 35,200 -60 Descending FlightAware ADS-B (EGPF / GLA)
10:31AM 57.0000 -20.0000 274° West 477 549 35,000 -60 Descending ETMS Enhanced Traffic Management System
10:32AM 55.5216 -19.8810 261° West  Level Estimated
10:33AM 55.5020 -20.0988 261° West  Level Estimated
10:34AM 55.4819 -20.3163 261° West  Level Estimated
10:35AM 55.4615 -20.5336 261° West  Level Estimated
10:36AM 55.4407 -20.7507 260° West  Level Estimated
10:37AM 57.0498 -21.4603 273° West 477 549 35,000  Level FlightAware Transoceanic
10:38AM 57.0564 -21.7040 273° West 477 549 35,000  Level FlightAware Transoceanic
10:39AM 57.0626 -21.9478 273° West 477 549 35,000  Level FlightAware Transoceanic
10:40AM 57.0683 -22.1917 272° West 477 549 35,000  Level FlightAware Transoceanic
10:41AM 57.0735 -22.4356 272° West 477 549 35,000  Level FlightAware Transoceanic
10:42AM 57.0783 -22.6797 272° West 477 549 35,000  Level FlightAware Transoceanic
10:43AM 57.0825 -22.9237 272° West 477 549 35,000  Level FlightAware Transoceanic
10:44AM 57.0863 -23.1679 272° West 477 549 35,000  Level FlightAware Transoceanic
10:45AM 57.0897 -23.4121 271° West 477 549 35,000  Level FlightAware Transoceanic
10:46AM 57.0925 -23.6563 271° West 477 549 35,000  Level FlightAware Transoceanic
10:47AM 57.0949 -23.9006 271° West 477 549 35,000  Level FlightAware Transoceanic
10:48AM 57.0968 -24.1449 271° West 477 549 35,000  Level FlightAware Transoceanic
10:49AM 57.0982 -24.3892 271° West 477 549 35,000  Level FlightAware Transoceanic
10:50AM 57.0992 -24.6335 270° West 477 549 35,000  Level FlightAware Transoceanic
10:51AM 57.0996 -24.8778 270° West 477 549 35,000  Level FlightAware Transoceanic
10:52AM 57.0996 -25.1222 270° West 477 549 35,000  Level FlightAware Transoceanic
10:53AM 57.0992 -25.3665 270° West 477 549 35,000  Level FlightAware Transoceanic
10:54AM 57.0982 -25.6108 269° West 477 549 35,000  Level FlightAware Transoceanic
10:55AM 57.0968 -25.8551 269° West 477 549 35,000  Level FlightAware Transoceanic
10:56AM 57.0949 -26.0994 269° West 477 549 35,000  Level FlightAware Transoceanic
10:57AM 57.0925 -26.3437 269° West 477 549 35,000  Level FlightAware Transoceanic
10:58AM 57.0897 -26.5879 269° West 477 549 35,000  Level FlightAware Transoceanic
10:59AM 57.0863 -26.8321 268° West 477 549 35,000  Level FlightAware Transoceanic
11:00AM 57.0825 -27.0763 268° West 477 549 35,000  Level FlightAware Transoceanic
11:01AM 57.0783 -27.3203 268° West 477 549 35,000  Level FlightAware Transoceanic
11:02AM 57.0735 -27.5644 268° West 477 549 35,000  Level FlightAware Transoceanic
11:03AM 57.0683 -27.8083 268° West 477 549 35,000  Level FlightAware Transoceanic
11:04AM 57.0626 -28.0522 267° West 477 549 35,000  Level FlightAware Transoceanic
11:05AM 57.0564 -28.2960 267° West 477 549 35,000  Level FlightAware Transoceanic
11:06AM 57.0498 -28.5397 267° West 477 549 35,000  Level FlightAware Transoceanic
11:07AM 57.0427 -28.7834 267° West 477 549 35,000  Level FlightAware Transoceanic
11:08AM 57.0351 -29.0269 267° West 477 549 35,000  Level FlightAware Transoceanic
11:09AM 57.0270 -29.2704 266° West 477 549 35,000  Level FlightAware Transoceanic
11:10AM 57.0185 -29.5137 266° West 477 549 35,000  Level FlightAware Transoceanic
11:11AM 57.0095 -29.7569 266° West 477 549 35,000  Level FlightAware Transoceanic
11:12AM 56.9681 -29.9731 251° West  Level Estimated
11:13AM 56.9263 -30.1889 251° West  Level Estimated
11:14AM 56.8842 -30.4042 250° West  Level Estimated
11:15AM 56.8417 -30.6189 250° West  Level Estimated
11:16AM 56.7989 -30.8332 250° West  Level Estimated
11:17AM 56.7556 -31.0470 250° West  Level Estimated
11:18AM 56.7121 -31.2603 250° West  Level Estimated
11:19AM 56.6681 -31.4732 249° West  Level Estimated
11:20AM 56.6238 -31.6855 249° West  Level Estimated
11:21AM 56.5791 -31.8973 249° West  Level Estimated
11:22AM 56.5341 -32.1086 249° West  Level Estimated
11:23AM 56.4887 -32.3194 249° West  Level Estimated
11:24AM 56.4429 -32.5297 249° West  Level Estimated
11:25AM 56.3968 -32.7395 248° West  Level Estimated
11:26AM 56.3503 -32.9488 248° West  Level Estimated
11:27AM 56.3035 -33.1576 248° West  Level Estimated
11:28AM 56.2564 -33.3658 248° West  Level Estimated
11:29AM 56.2089 -33.5736 248° West  Level Estimated
11:30AM 56.1610 -33.7808 248° West  Level Estimated
11:31AM 56.1128 -33.9875 247° West  Level Estimated
11:32AM 56.0643 -34.1937 247° West  Level Estimated
11:33AM 56.0154 -34.3994 247° West  Level Estimated
11:34AM 55.9661 -34.6045 247° West  Level Estimated
11:35AM 55.9166 -34.8092 247° West  Level Estimated
11:36AM 55.8667 -35.0132 247° West  Level Estimated
11:37AM 55.8164 -35.2168 246° West  Level Estimated
11:38AM 55.7658 -35.4199 246° West  Level Estimated
11:39AM 55.7149 -35.6224 246° West  Level Estimated
11:40AM 55.6637 -35.8244 246° West  Level Estimated
11:41AM 55.6121 -36.0259 246° West  Level Estimated
11:42AM 55.5602 -36.2268 246° West  Level Estimated
11:43AM 55.5079 -36.4272 245° Southwest  Level Estimated
11:44AM 55.4554 -36.6271 245° Southwest  Level Estimated
11:45AM 55.4025 -36.8264 245° Southwest  Level Estimated
11:46AM 55.3493 -37.0252 245° Southwest  Level Estimated
11:47AM 55.2957 -37.2235 245° Southwest  Level Estimated
11:48AM 55.2419 -37.4212 245° Southwest  Level Estimated
11:49AM 55.1877 -37.6184 244° Southwest  Level Estimated
11:50AM 55.1332 -37.8150 244° Southwest  Level Estimated
11:51AM 55.0784 -38.0112 244° Southwest  Level Estimated
11:52AM 55.0233 -38.2067 244° Southwest  Level Estimated
11:53AM 54.9679 -38.4018 244° Southwest  Level Estimated
11:54AM 54.9121 -38.5963 244° Southwest  Level Estimated
11:55AM 54.8561 -38.7902 243° Southwest  Level Estimated
11:56AM 54.7997 -38.9837 243° Southwest  Level Estimated
11:57AM 54.7431 -39.1766 243° Southwest  Level Estimated
11:58AM 54.6861 -39.3689 243° Southwest  Level Estimated
11:59AM 54.6288 -39.5607 243° Southwest  Level Estimated
12:00PM 54.5712 -39.7520 243° Southwest  Level Estimated
12:01PM 54.5134 -39.9427 242° Southwest  Level Estimated
12:02PM 54.4552 -40.1329 242° Southwest  Level Estimated
12:03PM 54.3967 -40.3225 242° Southwest  Level Estimated
12:04PM 54.3379 -40.5116 242° Southwest  Level Estimated
12:05PM 54.2789 -40.7001 242° Southwest  Level Estimated
12:06PM 54.2195 -40.8882 242° Southwest  Level Estimated
12:07PM 54.1599 -41.0756 242° Southwest  Level Estimated
12:08PM 54.0999 -41.2626 241° Southwest  Level Estimated
12:09PM 54.0397 -41.4490 241° Southwest  Level Estimated
12:10PM 53.9792 -41.6348 241° Southwest  Level Estimated
12:11PM 53.9184 -41.8201 241° Southwest  Level Estimated
12:12PM 53.8573 -42.0049 241° Southwest  Level Estimated
12:13PM 53.7959 -42.1891 241° Southwest  Level Estimated
12:14PM 53.7342 -42.3728 240° Southwest  Level Estimated
12:15PM 53.6723 -42.5560 240° Southwest  Level Estimated
12:16PM 53.6101 -42.7386 240° Southwest  Level Estimated
12:17PM 53.5476 -42.9207 240° Southwest  Level Estimated
12:18PM 53.4849 -43.1022 240° Southwest  Level Estimated
12:19PM 53.4218 -43.2832 240° Southwest  Level Estimated
12:20PM 53.3585 -43.4636 240° Southwest  Level Estimated
12:21PM 53.2949 -43.6436 239° Southwest  Level Estimated
12:22PM 53.2311 -43.8229 239° Southwest  Level Estimated
12:23PM 53.1670 -44.0018 239° Southwest  Level Estimated
12:24PM 53.1026 -44.1801 239° Southwest  Level Estimated
12:25PM 53.0379 -44.3579 239° Southwest  Level Estimated
12:26PM 52.9730 -44.5352 239° Southwest  Level Estimated
12:27PM 52.9078 -44.7119 239° Southwest  Level Estimated
12:28PM 52.8424 -44.8881 238° Southwest  Level Estimated
12:29PM 52.7767 -45.0637 238° Southwest  Level Estimated
12:30PM 52.7107 -45.2388 238° Southwest  Level Estimated
12:31PM 52.6445 -45.4134 238° Southwest  Level Estimated
12:32PM 52.5780 -45.5875 238° Southwest  Level Estimated
12:33PM 52.5113 -45.7610 238° Southwest  Level Estimated
12:34PM 52.4443 -45.9341 238° Southwest  Level Estimated
12:35PM 52.3771 -46.1065 237° Southwest  Level Estimated
12:36PM 52.3096 -46.2785 237° Southwest  Level Estimated
12:37PM 52.2418 -46.4499 237° Southwest  Level Estimated
12:38PM 52.1739 -46.6208 237° Southwest  Level Estimated
12:39PM 52.1056 -46.7912 237° Southwest  Level Estimated
12:40PM 52.0372 -46.9611 237° Southwest  Level Estimated
12:41PM 51.9684 -47.1304 237° Southwest  Level Estimated
12:42PM 51.8995 -47.2993 237° Southwest  Level Estimated
12:43PM 51.8303 -47.4676 236° Southwest  Level Estimated
12:44PM 51.7609 -47.6354 236° Southwest  Level Estimated
12:45PM 51.6912 -47.8026 236° Southwest  Level Estimated
12:46PM 51.6213 -47.9694 236° Southwest  Level Estimated
12:47PM 51.5511 -48.1356 236° Southwest  Level Estimated
12:48PM 51.4807 -48.3014 236° Southwest  Level Estimated
12:49PM 51.4101 -48.4666 236° Southwest  Level Estimated
12:50PM 51.3393 -48.6313 235° Southwest  Level Estimated
12:51PM 51.2682 -48.7955 235° Southwest  Level Estimated
12:52PM 51.1969 -48.9592 235° Southwest  Level Estimated
12:53PM 51.1254 -49.1224 235° Southwest  Level Estimated
12:54PM 51.0536 -49.2851 235° Southwest  Level Estimated
12:55PM 50.9816 -49.4473 235° Southwest  Level Estimated
12:56PM 50.9094 -49.6089 235° Southwest  Level Estimated
12:57PM 50.8370 -49.7701 235° Southwest  Level Estimated
12:58PM 50.7643 -49.9308 234° Southwest  Level Estimated
12:59PM 50.6915 -50.0910 234° Southwest  Level Estimated
01:00PM 50.6184 -50.2506 234° Southwest  Level Estimated
01:01PM 50.5451 -50.4098 234° Southwest  Level Estimated
01:02PM 50.4715 -50.5685 234° Southwest  Level Estimated
01:03PM 50.3939 -50.7351 234° Southwest  Level Estimated
01:04PM 50.3159 -50.9012 234° Southwest  Level Estimated
01:04PM 55.7333 -56.1167 233° Southwest 450 518 35,000  Level Moncton Center
01:05PM 50.2377 -51.0668 234° Southwest  Level Estimated
01:05PM 55.6667 -56.3333 241° Southwest 450 518 35,000  Level Moncton Center
01:06PM 50.1593 -51.2319 233° Southwest  Level Estimated
01:06PM 55.6167 -56.5333 246° West 450 518 35,000  Level Moncton Center
01:07PM 50.0806 -51.3964 233° Southwest  Level Estimated
01:07PM 55.6000 -56.6333 254° West 450 518 35,000  Level Gander Center
01:08PM 50.0017 -51.5604 233° Southwest  Level Estimated
01:08PM 55.5333 -56.8000 235° Southwest 450 518 35,000  Level Gander Center
01:09PM 49.9226 -51.7239 233° Southwest  Level Estimated
01:09PM 55.4667 -56.9500 232° Southwest 460 529 35,000  Level Gander Center
01:10PM 49.8432 -51.8868 233° Southwest  Level Estimated
01:10PM 55.3667 -57.0833 217° Southwest 450 518 35,000  Level Gander Center
01:11PM 55.2667 -57.2333 221° Southwest 450 518 35,000  Level Gander Center
01:12PM 55.1667 -57.3833 221° Southwest 460 529 35,000  Level Gander Center
01:13PM 55.0833 -57.5500 229° Southwest 460 529 35,000  Level Gander Center
01:14PM 54.9833 -57.6667 214° Southwest 460 529 35,000  Level Gander Center
01:15PM 54.8833 -57.8167 221° Southwest 450 518 35,000  Level Gander Center
01:16PM 54.8000 -57.9833 229° Southwest 450 518 35,000  Level Gander Center
01:17PM 54.7167 -58.1333 226° Southwest 450 518 35,000  Level Gander Center
01:18PM 54.6167 -58.2833 221° Southwest 450 518 35,000  Level Gander Center
01:19PM 54.5167 -58.4000 214° Southwest 450 518 35,000  Level Gander Center
01:20PM 54.4167 -58.5500 221° Southwest 450 518 35,000  Level Gander Center
01:21PM 54.3333 -58.7000 226° Southwest 450 518 35,000  Level Gander Center
01:22PM 54.2333 -58.8500 221° Southwest 450 518 35,000  Level Gander Center
01:23PM 54.1500 -58.9667 219° Southwest 450 518 35,000  Level Gander Center
01:24PM 54.0500 -59.1167 221° Southwest 450 518 35,000  Level Gander Center
01:25PM 53.9667 -59.2667 227° Southwest 450 518 35,000  Level Gander Center
01:26PM 53.8500 -59.4167 217° Southwest 450 518 35,000  Level Gander Center
01:27PM 53.7667 -59.5333 220° Southwest 450 518 35,000  Level Gander Center
01:28PM 53.6667 -59.6667 218° Southwest 450 518 35,000  Level Gander Center
01:29PM 53.5667 -59.8167 222° Southwest 450 518 35,000  Level Gander Center
01:30PM 53.4833 -59.9333 220° Southwest 460 529 35,000  Level Gander Center
01:31PM 53.3833 -60.0833 222° Southwest 470 541 35,000  Level Gander Center
01:32PM 53.2833 -60.2167 219° Southwest 430 495 35,000  Level Gander Center
01:33PM 53.2000 -60.3667 227° Southwest 450 518 35,000  Level Gander Center
01:33PM 53.1167 -60.4333 206° Southwest 450 518 35,000  Level Moncton Center
01:34PM 53.0333 -60.5833 227° Southwest 450 518 35,000  Level Moncton Center
01:35PM 52.9333 -60.7000 215° Southwest 450 518 35,000  Level Moncton Center
01:36PM 52.8333 -60.8500 222° Southwest 450 518 35,000  Level Moncton Center
01:37PM 52.7333 -60.9667 215° Southwest 450 518 35,000  Level Moncton Center
01:38PM 52.6500 -61.1167 228° Southwest 450 518 35,000  Level Moncton Center
01:39PM 52.5500 -61.2333 215° Southwest 450 518 35,000  Level Moncton Center
01:40PM 52.4500 -61.3500 215° Southwest 450 518 35,000  Level Moncton Center
01:41PM 52.3500 -61.5000 223° Southwest 450 518 35,000  Level Moncton Center
01:42PM 52.2500 -61.6333 219° Southwest 450 518 35,000  Level Moncton Center
01:43PM 52.1500 -61.7500 216° Southwest 450 518 35,000  Level Moncton Center
01:44PM 52.0667 -61.9000 228° Southwest 450 518 35,000  Level Moncton Center
01:45PM 51.9667 -62.0000 212° Southwest 450 518 35,000  Level Moncton Center
01:46PM 51.8667 -62.1500 223° Southwest 450 518 35,000  Level Moncton Center
01:47PM 51.7667 -62.2667 216° Southwest 450 518 35,000  Level Moncton Center
01:48PM 51.6667 -62.4000 220° Southwest 450 518 35,000  Level Moncton Center
01:49PM 51.5667 -62.5167 216° Southwest 440 506 35,000  Level Moncton Center
01:50PM 51.4667 -62.6500 220° Southwest 440 506 35,000  Level Moncton Center
01:51PM 51.3833 -62.7667 221° Southwest 440 506 35,000  Level Moncton Center
01:52PM 51.2833 -62.8667 212° Southwest 440 506 35,000  Level Moncton Center
01:53PM 51.1833 -63.0167 223° Southwest 440 506 35,000  Level Moncton Center
01:54PM 51.0833 -63.1167 212° Southwest 440 506 35,000  Level Moncton Center
01:55PM 51.0000 -63.2333 221° Southwest 430 495 35,000  Level Moncton Center
01:56PM 50.9000 -63.3667 220° Southwest 440 506 35,000  Level Moncton Center
01:57PM 50.8167 -63.4667 217° Southwest 430 495 35,000  Level Moncton Center
01:58PM 50.7000 -63.6000 216° Southwest 440 506 35,000  Level Moncton Center
01:59PM 50.6167 -63.7167 222° Southwest 440 506 35,000  Level Moncton Center
02:00PM 50.5167 -63.8167 212° Southwest 440 506 35,000  Level Moncton Center
02:01PM 50.4167 -63.9500 220° Southwest 430 495 35,000  Level Moncton Center
02:02PM 50.3167 -64.0500 213° Southwest 430 495 35,000  Level Moncton Center
02:03PM 50.2333 -64.1667 222° Southwest 430 495 35,000  Level Moncton Center
02:04PM 50.1333 -64.2667 213° Southwest 440 506 35,000  Level Moncton Center
02:05PM 50.0333 -64.4000 221° Southwest 440 506 35,000  Level Moncton Center
02:06PM 49.9333 -64.5000 213° Southwest 440 506 35,000  Level Moncton Center
02:07PM 49.8333 -64.6333 221° Southwest 430 495 35,000 420 Level Moncton Center
02:08PM 49.7500 -64.7333 218° Southwest 430 495 35,900 480 Climbing Moncton Center
02:09PM 49.6333 -64.8667 217° Southwest 440 506 36,000  Climbing Moncton Center
02:10PM 49.5333 -64.9667 213° Southwest 440 506 36,000  Level Moncton Center
02:11PM 49.4333 -65.0667 213° Southwest 430 495 36,000  Level Moncton Center
02:12PM 49.3333 -65.1667 213° Southwest 420 483 36,000  Level Moncton Center
02:13PM 49.2500 -65.2667 218° Southwest 420 483 36,000  Level Moncton Center
02:14PM 49.1500 -65.4000 221° Southwest 420 483 36,000  Level Moncton Center
02:15PM 49.0667 -65.5000 218° Southwest 420 483 36,000  Level Moncton Center
02:16PM 48.9667 -65.6000 213° Southwest 420 483 36,000  Level Moncton Center
02:17PM 48.8667 -65.7000 213° Southwest 420 483 36,000  Level Moncton Center
02:18PM 48.7833 -65.8167 223° Southwest 430 495 36,000  Level Moncton Center
02:19PM 48.6833 -65.9167 213° Southwest 420 483 36,000  Level Moncton Center
02:20PM 48.5833 -66.0167 213° Southwest 420 483 36,000  Level Moncton Center
02:21PM 48.4833 -66.1167 214° Southwest 420 483 36,000  Level Moncton Center
02:22PM 48.3833 -66.2167 214° Southwest 410 472 36,000  Level Moncton Center
02:23PM 48.2833 -66.3333 218° Southwest 410 472 36,000  Level Moncton Center
02:24PM 48.2000 -66.4333 219° Southwest 410 472 36,000  Level Moncton Center
02:25PM 48.1167 -66.5333 219° Southwest 400 460 36,000  Level Moncton Center
02:26PM 48.0167 -66.6167 209° Southwest 410 472 36,000  Level Moncton Center
02:27PM 47.9333 -66.7167 219° Southwest 410 472 36,000  Level Moncton Center
02:28PM 47.8500 -66.8167 219° Southwest 400 460 36,000  Level Moncton Center
02:29PM 47.7333 -66.9167 210° Southwest 400 460 36,000  Level Moncton Center
02:30PM 47.6500 -67.0000 214° Southwest 410 472 36,000  Level Moncton Center
02:31PM 47.5667 -67.1000 219° Southwest 410 472 36,000  Level Moncton Center
02:32PM 47.4667 -67.2000 214° Southwest 410 472 36,000  Level Moncton Center
02:37PM 47.0450 -67.6267 212° Southwest 422 486 36,000  Level FlightAware ADS-B
02:39PM 46.8420 -67.8149 212° Southwest 423 487 36,000  Level FlightAware ADS-B
02:39PM 46.7665 -67.8845 212° Southwest 425 489 36,000  Level FlightAware ADS-B
02:40PM 46.7207 -67.9266 212° Southwest 428 493 36,000  Level FlightAware ADS-B
02:41PM 46.6476 -67.9936 212° Southwest 426 490 36,000  Level FlightAware ADS-B
02:41PM 46.5759 -68.0591 212° Southwest 426 490 36,000  Level FlightAware ADS-B
02:42PM 46.5259 -68.1048 212° Southwest 426 490 36,000  Level FlightAware ADS-B
02:42PM 46.4750 -68.1511 212° Southwest 426 490 36,000  Level FlightAware ADS-B
02:43PM 46.3710 -68.2454 212° Southwest 425 489 36,000  Level FlightAware ADS-B
02:44PM 46.3230 -68.2887 212° Southwest 426 490 36,000  Level FlightAware ADS-B
02:44PM 46.2675 -68.3388 212° Southwest 426 490 36,000  Level FlightAware ADS-B
02:45PM 46.2151 -68.3859 212° Southwest 427 491 36,000  Level FlightAware ADS-B
02:45PM 46.1665 -68.4295 212° Southwest 427 491 36,000  Level FlightAware ADS-B
02:46PM 46.1155 -68.4752 212° Southwest 427 491 36,000  Level FlightAware ADS-B
02:47PM 46.0522 -68.5317 212° Southwest 428 493 36,000  Level FlightAware ADS-B
02:47PM 46.0013 -68.5771 212° Southwest 429 494 36,000  Level FlightAware ADS-B
02:48PM 45.9530 -68.6200 212° Southwest 431 496 36,000  Level FlightAware ADS-B
02:48PM 45.8927 -68.6735 212° Southwest 432 497 36,000  Level FlightAware ADS-B
02:49PM 45.8389 -68.7212 212° Southwest 432 497 36,000  Level FlightAware ADS-B
02:49PM 45.7897 -68.7645 212° Southwest 431 496 36,000  Level FlightAware ADS-B
02:50PM 45.7267 -68.8200 212° Southwest 432 497 36,000  Level FlightAware ADS-B (KBGR)
02:50PM 45.6777 -68.8631 212° Southwest 433 498 36,000  Level FlightAware ADS-B
02:51PM 45.6157 -68.9174 212° Southwest 436 502 36,000  Level FlightAware ADS-B (KBGR)
02:51PM 45.5625 -68.9639 211° Southwest 437 503 36,000  Level FlightAware ADS-B (KBGR)
02:52PM 45.5100 -69.0098 212° Southwest 439 505 36,000  Level FlightAware ADS-B
02:53PM 45.4529 -69.0593 211° Southwest 437 503 36,000  Level FlightAware ADS-B
02:53PM 45.3913 -69.1128 211° Southwest 436 502 36,000  Level FlightAware ADS-B
02:54PM 45.3389 -69.1581 212° Southwest 435 501 36,000  Level FlightAware ADS-B
02:54PM 45.2734 -69.2149 211° Southwest 434 499 36,000  Level FlightAware ADS-B (KBGR)
02:55PM 45.2211 -69.2600 211° Southwest 435 501 36,000  Level FlightAware ADS-B (KBGR)
02:55PM 45.1524 -69.3190 211° Southwest 436 502 36,000  Level FlightAware ADS-B
02:56PM 45.1006 -69.3635 211° Southwest 436 502 36,000  Level FlightAware ADS-B
02:56PM 45.0491 -69.4074 211° Southwest 436 502 36,000  Level FlightAware ADS-B
02:57PM 45.0044 -69.4456 211° Southwest 437 503 36,000  Level FlightAware ADS-B (CYQI)
02:57PM 44.9454 -69.4958 211° Southwest 438 504 36,000  Level FlightAware ADS-B (KBGR)
02:58PM 44.8745 -69.5561 211° Southwest 437 503 36,000  Level FlightAware ADS-B
02:59PM 44.8239 -69.5990 211° Southwest 437 503 36,000  Level FlightAware ADS-B
02:59PM 44.7708 -69.6439 211° Southwest 438 504 36,000  Level FlightAware ADS-B
03:00PM 44.7139 -69.6919 211° Southwest 438 504 36,000  Level FlightAware ADS-B
03:01PM 44.6119 -69.7777 211° Southwest 437 503 36,000  Level FlightAware ADS-B
03:01PM 44.5578 -69.8231 211° Southwest 438 504 36,000  Level FlightAware ADS-B
03:02PM 44.5020 -69.8698 211° Southwest 437 503 36,000  Level FlightAware ADS-B
03:02PM 44.4580 -69.9065 211° Southwest 437 503 36,000  Level FlightAware ADS-B (CYQI)
03:03PM 44.3772 -69.9738 211° Southwest 435 501 36,000  Level FlightAware ADS-B
03:03PM 44.3371 -70.0072 211° Southwest 435 501 36,000  Level FlightAware ADS-B (CYQI)
03:04PM 44.2620 -70.0695 211° Southwest 437 503 36,000  Level FlightAware ADS-B (CYQI)
03:05PM 44.2083 -70.1139 211° Southwest 437 503 36,000  Level FlightAware ADS-B (CYQI)
03:05PM 44.1355 -70.1740 211° Southwest 439 505 36,000  Level FlightAware ADS-B (CYQI)
03:06PM 44.0924 -70.2095 211° Southwest 439 505 36,000  Level FlightAware ADS-B (CYQI)
03:06PM 44.0262 -70.2639 211° Southwest 439 505 36,000  Level FlightAware ADS-B
03:07PM 43.9455 -70.3299 211° Southwest 440 506 36,000  Level FlightAware ADS-B (CYQI)
03:07PM 43.8929 -70.3729 211° Southwest 440 506 36,000  Level FlightAware ADS-B (CYQI)
03:08PM 43.8116 -70.4391 211° Southwest 431 496 36,000  Level FlightAware ADS-B (KASH)
03:09PM 43.7523 -70.4872 211° Southwest 438 504 36,000  Level FlightAware ADS-B (KBOS)
03:09PM 43.6877 -70.5396 211° Southwest 430 495 36,000  Level FlightAware ADS-B (KASH)
03:10PM 43.6285 -70.5874 211° Southwest 431 496 36,000  Level FlightAware ADS-B (KASH)
03:10PM 43.6100 -70.6024 211° Southwest 430 495 36,000  Level FlightAware ADS-B (KASH)
03:11PM 43.5526 -70.6485 210° Southwest 437 503 36,000  Level FlightAware ADS-B (KBOS)
03:11PM 43.5026 -70.6889 210° Southwest 436 502 36,000  Level FlightAware ADS-B (KBOS)
03:12PM 43.4469 -70.7334 210° Southwest 437 503 36,000  Level FlightAware ADS-B (KBOS)
03:12PM 43.3912 -70.7781 211° Southwest 431 496 36,000  Level FlightAware ADS-B (KASH)
03:13PM 43.3449 -70.8150 211° Southwest 431 496 36,000  Level FlightAware ADS-B (KASH)
03:13PM 43.3350 -70.8230 211° Southwest 438 504 36,000  Level FlightAware ADS-B
03:13PM 43.2935 -70.8560 210° Southwest 436 502 36,000  Level FlightAware ADS-B (KBOS)
03:14PM 43.2365 -70.9014 210° Southwest 434 499 36,000  Level FlightAware ADS-B (KBOS)
03:14PM 43.1814 -70.9452 210° Southwest 434 499 36,000  Level FlightAware ADS-B (KBOS)
03:15PM 43.1292 -70.9866 211° Southwest 428 493 36,000  Level FlightAware ADS-B (KASH)
03:15PM 43.1051 -71.0056 211° Southwest 428 493 36,000  Level FlightAware ADS-B (KASH)
03:16PM 43.0507 -71.0487 211° Southwest 428 493 36,000  Level FlightAware ADS-B (KASH)
03:16PM 42.9939 -71.0935 210° Southwest 435 501 36,000  Level FlightAware ADS-B (KBOS)
03:16PM 42.9743 -71.1089 211° Southwest 427 491 36,000  Level FlightAware ADS-B (KASH)
03:17PM 42.9240 -71.1485 210° Southwest 433 498 36,000  Level FlightAware ADS-B (KBOS)
03:17PM 42.8715 -71.1897 210° Southwest 432 497 36,000  Level FlightAware ADS-B (KBOS)
03:18PM 42.8173 -71.2321 210° Southwest 431 496 36,000  Level FlightAware ADS-B (KBOS)
03:18PM 42.7635 -71.2741 210° Southwest 431 496 36,000  Level FlightAware ADS-B (KASH)
03:19PM 42.7124 -71.3141 210° Southwest 431 496 36,000  Level FlightAware ADS-B (KBOS)
03:19PM 42.6628 -71.3528 210° Southwest 429 494 36,000  Level FlightAware ADS-B (KBOS)
03:20PM 42.6008 -71.4010 210° Southwest 428 493 36,000  Level FlightAware ADS-B (KBOS)
03:20PM 42.5490 -71.4412 210° Southwest 427 491 36,000  Level FlightAware ADS-B (KBOS)
03:21PM 42.4952 -71.4828 210° Southwest 427 491 36,000  Level FlightAware ADS-B (KBOS)
03:21PM 42.4462 -71.5207 210° Southwest 429 494 36,000  Level FlightAware ADS-B (KBOS)
03:22PM 42.3785 -71.5728 210° Southwest 430 495 36,000  Level FlightAware ADS-B
03:23PM 42.3202 -71.6176 210° Southwest 431 496 36,000  Level FlightAware ADS-B (KBOS)
03:23PM 42.2888 -71.6417 210° Southwest 430 495 36,000  Level FlightAware ADS-B (KBOS)
03:24PM 42.2051 -71.7058 210° Southwest 430 495 36,000  Level FlightAware ADS-B (KBOS)
03:24PM 42.1455 -71.7514 210° Southwest 430 495 36,000  Level FlightAware ADS-B (KASH)
03:25PM 42.0922 -71.7920 210° Southwest 430 495 36,000  Level FlightAware ADS-B (KASH)
03:25PM 42.0402 -71.8317 210° Southwest 430 495 36,000  Level FlightAware ADS-B (KASH)
03:26PM 41.9890 -71.8705 210° Southwest 429 494 36,000  Level FlightAware ADS-B (KASH)
03:26PM 41.9361 -71.9106 210° Southwest 430 495 36,000  Level FlightAware ADS-B (KASH)
03:27PM 41.8420 -71.9818 209° Southwest 429 494 36,000  Level FlightAware ADS-B (KASH)
03:28PM 41.7819 -72.0271 209° Southwest 429 494 36,000  Level FlightAware ADS-B (KASH)
03:28PM 41.7154 -72.0771 209° Southwest 430 495 36,000  Level FlightAware ADS-B
03:29PM 41.6332 -72.1388 210° Southwest 424 488 36,000  Level FlightAware ADS-B (KASH)
03:30PM 41.5287 -72.2168 209° Southwest 429 494 36,000  Level FlightAware ADS-B (KASH)
03:31PM 41.4973 -72.2403 209° Southwest 428 493 36,000  Level FlightAware ADS-B (KOWD)
03:32PM 41.4056 -72.3069 209° Southwest 427 491 36,000  Level Boston Center
03:33PM 41.2797 -72.4006 209° Southwest 428 493 36,000  Level Boston Center
03:34PM 41.1931 -72.4639 209° Southwest 431 496 36,000  Level Boston Center
03:39PM 40.6186 -73.0130 218° Southwest 437 503 36,000  Level FlightAware ADS-B (KPHL)
03:41PM 40.4952 -73.1365 217° Southwest 440 506 36,000  Level FlightAware ADS-B (KPHL)
03:42PM 40.3980 -73.2334 217° Southwest 440 506 36,000  Level FlightAware ADS-B (KPHL)
03:43PM 40.2788 -73.3515 217° Southwest 440 506 36,000  Level FlightAware ADS-B (KPHL)
03:44PM 40.1849 -73.4443 217° Southwest 444 511 36,000  Level FlightAware ADS-B (KPHL)
03:44PM 40.1325 -73.4960 217° Southwest 445 512 36,000  Level FlightAware ADS-B (KPHL)
03:45PM 40.0580 -73.5692 217° Southwest 446 513 36,000  Level FlightAware ADS-B (KPHL)
03:46PM 39.9302 -73.6944 217° Southwest 448 516 36,000  Level FlightAware ADS-B (KPHL)
03:47PM 39.8448 -73.7777 217° Southwest 448 516 36,000  Level FlightAware ADS-B (KPHL)
03:48PM 39.7475 -73.8725 217° Southwest 447 514 36,000  Level FlightAware ADS-B (KPHL)
03:49PM 39.6990 -73.9195 217° Southwest 448 516 36,000  Level FlightAware ADS-B (KPHL)
03:49PM 39.6302 -73.9861 217° Southwest 452 520 36,000  Level FlightAware ADS-B (KPHL)
03:53PM 39.2579 -74.3432 217° Southwest 454 522 36,000  Level FlightAware ADS-B (KPHL)
03:54PM 39.1563 -74.4399 217° Southwest 454 522 36,000  Level FlightAware ADS-B (KPHL)
03:56PM 38.9923 -74.5951 216° Southwest 454 522 36,000  Level FlightAware ADS-B (KPHL)
03:57PM 39.0099 -74.5786 216° Southwest 454 522 36,000  Level FlightAware ADS-B (KPHL)
03:59PM 38.7061 -74.8640 216° Southwest 455 524 36,000  Level FlightAware ADS-B (KPHL)
03:59PM 38.6175 -74.9467 216° Southwest 456 525 36,000  Level FlightAware ADS-B (KPHL)
04:00PM 38.5208 -75.0367 216° Southwest 454 522 36,000  Level FlightAware ADS-B (KPHL)
04:01PM 38.6175 -74.9467 216° Southwest 454 522 36,000  Level FlightAware ADS-B (KPHL)
04:03PM 38.2747 -75.2400 216° Southwest 459 528 36,000  Level Washington Center
04:04PM 38.1625 -75.3197 209° Southwest 454 522 36,000  Level Washington Center
04:05PM 38.0519 -75.3992 210° Southwest 459 528 36,000  Level Washington Center
04:06PM 37.9394 -75.4758 208° Southwest 464 534 36,000  Level Washington Center
04:07PM 37.8311 -75.5575 211° Southwest 464 534 36,000  Level Washington Center
04:08PM 37.7186 -75.6339 208° Southwest 464 534 36,000  Level Washington Center
04:09PM 37.6058 -75.7125 209° Southwest 464 534 36,000  Level Washington Center
04:10PM 37.4972 -75.7881 209° Southwest 464 534 36,000  Level Washington Center
04:11PM 37.3844 -75.8664 209° Southwest 464 534 36,000  Level Washington Center
04:12PM 37.2736 -75.9442 209° Southwest 459 528 36,000  Level Washington Center
04:13PM 37.1631 -76.0192 208° Southwest 464 534 36,000  Level Washington Center
04:14PM 37.0542 -76.0967 210° Southwest 464 534 36,000  Level Washington Center
04:15PM 36.9369 -76.1686 206° Southwest 464 534 36,000  Level Washington Center
04:16PM 36.8239 -76.2458 209° Southwest 464 534 36,000  Level Washington Center
04:17PM 36.7150 -76.3200 209° Southwest 464 534 36,000  Level Washington Center
04:18PM 36.6167 -76.3917 210° Southwest 464 534 36,000  Level Washington Center
04:19PM 36.5056 -76.4653 208° Southwest 464 534 36,000  Level Washington Center
04:20PM 36.3964 -76.5389 208° Southwest 464 534 36,000  Level Washington Center
04:21PM 36.2853 -76.6125 208° Southwest 458 527 36,000  Level Washington Center
04:22PM 36.1761 -76.6856 208° Southwest 458 527 36,000  Level Washington Center
04:23PM 36.0647 -76.7611 209° Southwest 458 527 36,000  Level Washington Center
04:24PM 35.9536 -76.8339 208° Southwest 453 521 36,000  Level Washington Center
04:25PM 35.8442 -76.9039 207° Southwest 453 521 36,000  Level Washington Center
04:26PM 35.7328 -76.9764 208° Southwest 453 521 36,000  Level Washington Center
04:27PM 35.6172 -77.0561 209° Southwest 453 521 36,000  Level Washington Center
04:28PM 35.5097 -77.1256 208° Southwest 447 514 36,000  Level Washington Center
04:29PM 35.4006 -77.1975 208° Southwest 441 507 36,000  Level Washington Center
04:30PM 35.2931 -77.2664 208° Southwest 441 507 36,000  Level Washington Center
04:31PM 35.1814 -77.3406 209° Southwest 441 507 36,000  Level Washington Center
04:32PM 35.0719 -77.4117 208° Southwest 441 507 36,000  Level Washington Center
04:33PM 34.9603 -77.4828 208° Southwest 446 513 36,000  Level Washington Center
04:34PM 34.8506 -77.5533 208° Southwest 446 513 36,000  Level Washington Center
04:35PM 34.7386 -77.6292 209° Southwest 452 520 36,000  Level Washington Center
04:36PM 34.6289 -77.6994 208° Southwest 452 520 36,000  Level Washington Center
04:37PM 34.4700 -77.8028 208° Southwest 439 505 36,000  Level Jacksonville Center
04:38PM 34.3581 -77.8697 206° Southwest 444 511 36,000  Level Jacksonville Center
04:39PM 34.2203 -77.9156 195° South 459 528 36,000  Level Jacksonville Center
04:40PM 34.1067 -77.9469 193° South 479 551 36,000  Level Jacksonville Center
04:41PM 33.9786 -77.9817 193° South 479 551 36,000  Level Jacksonville Center
04:42PM 33.8569 -78.0161 193° South 468 539 36,000  Level Jacksonville Center
04:43PM 33.7331 -78.0531 194° South 468 539 36,000  Level Jacksonville Center
04:44PM 33.5950 -78.0953 194° South 468 539 36,000  Level Jacksonville Center
04:45PM 33.4689 -78.1297 193° South 468 539 36,000  Level Jacksonville Center
04:46PM 33.3450 -78.1636 193° South 468 539 36,000  Level Jacksonville Center
04:47PM 33.2192 -78.2000 194° South 468 539 36,000  Level Jacksonville Center
04:48PM 33.0953 -78.2339 193° South 468 539 36,000  Level Jacksonville Center
04:49PM 32.9672 -78.2703 193° South 468 539 36,000  Level Jacksonville Center
04:50PM 32.8453 -78.3086 195° South 468 539 36,000  Level Jacksonville Center
04:51PM 32.7214 -78.3397 192° South 468 539 36,000  Level Jacksonville Center
04:52PM 32.5972 -78.3756 194° South 468 539 36,000  Level Jacksonville Center
04:53PM 32.4711 -78.4089 193° South 468 539 36,000  Level Jacksonville Center
04:54PM 32.3453 -78.4444 193° South 468 539 36,000  Level Jacksonville Center
04:55PM 32.2233 -78.4822 195° South 468 539 36,000  Level Jacksonville Center
04:56PM 32.0972 -78.5203 194° South 468 539 36,000  Level Jacksonville Center
04:57PM 31.9714 -78.5581 194° South 468 539 36,000  Level Jacksonville Center
04:58PM 31.8494 -78.5931 194° South 468 539 36,000  Level Jacksonville Center
04:59PM 31.7231 -78.6283 193° South 468 539 36,000  Level Jacksonville Center
05:00PM 31.5950 -78.6658 194° South 468 539 36,000  Level Jacksonville Center
05:01PM 31.4711 -78.7031 194° South 468 539 36,000  Level Jacksonville Center
05:02PM 31.3469 -78.7356 193° South 468 539 36,000  Level Jacksonville Center
05:03PM 31.2206 -78.7703 193° South 468 539 36,000  Level Jacksonville Center
05:04PM 31.0967 -78.8072 194° South 468 539 36,000  Level Jacksonville Center
05:05PM 30.9683 -78.8419 193° South 470 541 36,000  Level Jacksonville Center
05:06PM 30.8506 -78.8783 195° South 475 547 36,000  Level Jacksonville Center
05:07PM 30.7200 -78.9128 193° South 468 539 36,000  Level Jacksonville Center
05:09PM 30.5442 -78.9625 194° South 446 513 36,000  Level Miami Center
05:10PM 30.4144 -78.9983 193° South 459 528 36,000  Level Miami Center
05:11PM 30.2947 -79.0464 199° South 466 536 36,000  Level Miami Center
05:12PM 30.1733 -79.0919 198° South 466 536 36,000  Level Miami Center
05:13PM 30.0536 -79.1397 199° South 466 536 36,000  Level Miami Center
05:14PM 29.9233 -79.1969 201° Southwest 466 536 36,000  Level Miami Center
05:15PM 29.8061 -79.2397 198° South 460 529 36,000  Level Miami Center
05:16PM 29.6864 -79.2872 199° South 455 524 36,000  Level Miami Center
05:17PM 29.5667 -79.3300 197° South 450 518 36,000  Level Miami Center
05:18PM 29.4469 -79.3772 199° South 450 518 36,000  Level Miami Center
05:24PM 28.7475 -79.6362 198° South 460 529 36,000  Level FlightAware ADS-B (KMCO)
05:26PM 28.4277 -79.7559 198° South 452 520 36,000  Level FlightAware ADS-B (KMCO)
05:27PM 28.3536 -79.7836 198° South 451 519 36,000  Level FlightAware ADS-B (KMCO)
05:27PM 28.2957 -79.8052 198° South 451 519 36,000  Level FlightAware ADS-B (KMCO)
05:28PM 28.2266 -79.8309 198° South 452 520 36,000  Level FlightAware ADS-B (KMCO)
05:29PM 28.0781 -79.8860 198° South 453 521 36,000  Level FlightAware ADS-B (KMCO)
05:30PM 27.9951 -79.9167 198° South 454 522 36,000  Level FlightAware ADS-B (KMCO)
05:31PM 27.9091 -79.9485 198° South 454 522 36,000  Level FlightAware ADS-B (KMCO)
05:31PM 27.8284 -79.9784 198° South 455 524 36,000  Level FlightAware ADS-B (KMCO)
05:32PM 27.7695 -80.0001 198° South 454 522 36,000  Level FlightAware ADS-B (KMCO)
05:32PM 27.7077 -80.0228 198° South 453 521 36,000  Level FlightAware ADS-B (KMCO)
05:33PM 27.6537 -80.0427 198° South 452 520 36,000  Level FlightAware ADS-B (KMCO)
05:33PM 27.6045 -80.0607 198° South 451 519 36,000  Level FlightAware ADS-B (KMCO)
05:34PM 27.5109 -80.0951 198° South 450 518 36,000  Level FlightAware ADS-B (KMCO)
05:35PM 27.4106 -80.1318 198° South 447 514 36,000  Level FlightAware ADS-B (KMCO)
05:35PM 27.3204 -80.1648 198° South 445 512 36,000  Level FlightAware ADS-B (KMCO)
05:36PM 27.2418 -80.1935 198° South 445 512 36,000  Level FlightAware ADS-B (RJTF)
05:37PM 27.1859 -80.2139 198° South 445 512 36,000  Level FlightAware ADS-B (RJTF)
05:38PM 27.0397 -80.2672 198° South 441 507 36,000  Level FlightAware ADS-B (RJTF)
05:39PM 26.9431 -80.3022 198° South 440 506 36,000  Level FlightAware ADS-B (RJTF)
05:39PM 26.8533 -80.3348 198° South 442 509 36,000  Level FlightAware ADS-B (RJTF)
05:40PM 26.7985 -80.3546 198° South 442 509 36,000  Level FlightAware ADS-B (RJTF)
05:41PM 26.7078 -80.3873 198° South 443 510 36,000  Level FlightAware ADS-B (RJTF)
05:41PM 26.6532 -80.4070 198° South 443 510 36,000  Level FlightAware ADS-B (RJTF)
05:42PM 26.5603 -80.4405 198° South 444 511 36,000  Level FlightAware ADS-B (RJTF)
05:42PM 26.5043 -80.4607 198° South 444 511 36,000  Level FlightAware ADS-B (RJTF)
05:43PM 26.4210 -80.4906 198° South 442 509 36,000  Level FlightAware ADS-B (RJTF)
05:44PM 26.3453 -80.5178 198° South 441 507 36,000  Level FlightAware ADS-B (RJTF)
05:45PM 26.2527 -80.5510 198° South 438 504 36,000  Level FlightAware ADS-B (RJTF)
05:45PM 26.1529 -80.5867 198° South 436 502 36,000  Level FlightAware ADS-B (RJTF)
05:46PM 26.0963 -80.6069 198° South 436 502 36,000  Level FlightAware ADS-B (RJTF)
05:47PM 26.0359 -80.6285 198° South 437 503 36,000  Level FlightAware ADS-B (RJTF)
05:48PM 25.9062 -80.6748 198° South 442 509 36,000  Level FlightAware ADS-B (RJTF)
05:49PM 25.7703 -80.7258 198° South 447 514 36,000  Level Miami Center
05:50PM 25.6522 -80.7681 198° South 453 521 36,000  Level Miami Center
05:51PM 25.5361 -80.8128 199° South 453 521 36,000  Level Miami Center
05:52PM 25.4458 -80.9017 222° Southwest 433 498 36,000  Level Miami Center
05:53PM 25.3639 -80.9956 226° Southwest 433 498 36,000  Level Miami Center
05:54PM 25.2819 -81.0892 226° Southwest 428 493 36,000  Level Miami Center
05:55PM 25.2000 -81.1806 225° Southwest 428 493 36,000  Level Miami Center
05:56PM 25.1158 -81.2739 225° Southwest 428 493 36,000  Level Miami Center
05:57PM 25.0439 -81.3744 232° Southwest 428 493 36,000  Level Miami Center
05:58PM 24.9922 -81.4894 244° Southwest 419 482 36,000 -180 Level Miami Center
05:59PM 24.9489 -81.6069 248° West 419 482 35,700 -1,440 Descending Miami Center
06:00PM 24.9053 -81.7267 248° West 424 488 33,200 -2,040 Descending Miami Center
06:01PM 24.8683 -81.8328 249° West 419 482 31,700 -1,800 Descending Miami Center
06:02PM 24.8142 -81.9517 243° Southwest 408 470 29,700 -1,500 Descending Miami Center
06:03PM 24.7197 -82.0208 214° Southwest 388 447 28,700 -1,020 Descending Miami Center
06:04PM 24.6236 -82.0831 210° Southwest 395 455 27,700 -1,080 Descending Miami Center
06:05PM 24.5294 -82.1478 212° Southwest 400 460 26,600 -1,440 Descending Miami Center
06:06PM 24.4394 -82.2122 213° Southwest 405 466 24,900 -1,740 Descending Miami Center
06:07PM 24.3494 -82.2792 214° Southwest 400 460 23,200 -1,500 Descending Miami Center
06:08PM 24.2575 -82.3389 211° Southwest 395 455 22,000 -600 Descending Miami Center
06:09PM 24.1739 -82.3989 213° Southwest 382 440 22,000 -60 Level Miami Center
06:10PM 24.0878 -82.4633 214° Southwest 382 440 21,900 -1,320 Descending Miami Center
06:11PM 23.9939 -82.5183 208° Southwest 382 440 19,400 -2,520 Descending Miami Center
06:13PM 23.7711 -82.4940 178° South  Level Estimated
06:20PM 22.9891 -82.4091 180° South  Level Estimated
06:21PM 22.9891 -82.4091 180° South  Level Estimated
06:22PM 22.9891 -82.4091 180° South  Level Estimated
06:23PM 22.9891 -82.4091 180° South  Level Estimated
06:24PM 22.9891 -82.4091 180° South  Level Estimated
06:25PM 22.9891 -82.4091 180° South  Level Estimated
06:26PM 22.9891 -82.4091 180° South  Level Estimated
06:27PM 22.9891 -82.4091 180° South  Level Estimated
06:28PM 22.9891 -82.4091 180° South  Level Estimated
06:29PM 22.9891 -82.4091 180° South  Level Estimated
06:30PM 22.9891 -82.4091 180° South  Level Estimated
06:31PM 22.9891 -82.4091 180° South  Level Estimated
06:32PM 22.9891 -82.4091 180° South  Level Estimated
06:33PM 22.9891 -82.4091 180° South  Level Estimated
06:34PM 22.9891 -82.4091 180° South  Level Estimated
06:35PM 22.9891 -82.4091 180° South  Level Estimated
06:36PM 22.9891 -82.4091 180° South  Level Estimated
06:37PM 22.9891 -82.4091 180° South  Level Estimated
06:38PM 22.9891 -82.4091 180° South  Level Estimated
06:39PM 22.9891 -82.4091 180° South  Level Estimated
06:40PM 22.9891 -82.4091 180° South  Level Estimated
06:41PM 22.9891 -82.4091 180° South  Level Estimated